Weather History for Wadena, MN

Change the Weather History Date:

Tuesday, January 28, 2014

  Actual Average Record
Temperature  
Mean Temperature -16 °F -  
Max Temperature -7 °F 16 °F 41 °F (1989)
Min Temperature -25 °F -4 °F -36 °F (1966)
Degree Days  
Heating Degree Days 81    
Moisture  
Dew Point -21 °F    
Average Humidity 73    
Maximum Humidity 84    
Minimum Humidity 59    
Precipitation  
Precipitation 0.00 in - - ()
Sea Level Pressure  
Sea Level Pressure 30.13 in    
Wind  
Wind Speed 9 mph (West)    
Max Wind Speed 16 mph    
Max Gust Speed 21 mph    
Visibility 10 miles    
Events      
Averages and records for this station are not official NWS values.
T = Trace of Precipitation, MM = Missing Value Source: NWS Daily Summary

Daily Weather History Graph

Daily Weather History Graph

Search for Another Location

Airport:

Trip Planner

Search our weather history database for the weather conditions in past years. The results will help you decide how hot, cold, wet, or windy it might be!

Date:

Astronomy

Jan. 28, 2014 Rise Set
Actual Time 7:48 AM CST 5:19 PM CST
Civil Twilight 7:16 AM CST 5:51 PM CST
Nautical Twilight 6:39 AM CST 6:28 PM CST
Astronomical Twilight 6:04 AM CST 7:03 PM CST
Moon 5:33 AM CST (1/28) 3:08 PM CST (1/28)
Length of Visible Light 10h 35m
Length of Day
9h 30m
Waning Crescent, 7% of the Moon is Illuminated
Jan 28
Waning Crescent
Jan 30
New
Feb 6
First Quarter
Feb 14
Full
Feb 22
Last Quarter

Hourly Weather History & Observations

Time (CST) Temp. Windchill Dew Point Humidity Pressure Visibility Wind Dir Wind Speed Gust Speed Precip Events Conditions
12:15 AM -20.2 °F -33.5 °F -23.8 °F 83% 30.26 in 10.0 mi West 4.6 mph - N/A   Clear
12:35 AM -20.2 °F -35.5 °F -25.6 °F 76% 30.26 in 10.0 mi West 5.8 mph - N/A   Clear
12:53 AM -20.2 °F -37.3 °F -25.6 °F 76% 30.26 in 10.0 mi West 6.9 mph - N/A   Clear
1:15 AM -20.2 °F -37.3 °F -25.6 °F 76% 30.25 in 10.0 mi West 6.9 mph - N/A   Clear
1:34 AM -20.2 °F -38.8 °F -25.6 °F 76% 30.24 in 10.0 mi West 8.1 mph - N/A   Clear
1:53 AM -20.2 °F -40.1 °F -25.6 °F 76% 30.23 in 10.0 mi West 9.2 mph - N/A   Clear
2:15 AM -20.2 °F -38.8 °F -25.6 °F 76% 30.23 in 10.0 mi West 8.1 mph - N/A   Clear
2:35 AM -20.2 °F -37.3 °F -25.6 °F 76% 30.24 in 10.0 mi West 6.9 mph - N/A   Clear
2:53 AM -20.2 °F -35.5 °F -25.6 °F 76% 30.23 in 10.0 mi West 5.8 mph - N/A   Clear
3:15 AM -20.2 °F -37.3 °F -25.6 °F 76% 30.22 in 10.0 mi West 6.9 mph - N/A   Clear
3:35 AM -22.0 °F -39.4 °F -27.4 °F 76% 30.22 in 10.0 mi West 6.9 mph - N/A   Clear
3:53 AM -20.2 °F -35.5 °F -25.6 °F 76% 30.22 in 10.0 mi West 5.8 mph - N/A   Clear
4:15 AM -22.0 °F -37.7 °F -27.4 °F 76% 30.22 in 10.0 mi West 5.8 mph - N/A   Clear
4:35 AM -22.0 °F -35.6 °F -27.4 °F 76% 30.22 in 10.0 mi West 4.6 mph - N/A   Clear
4:53 AM -23.8 °F -41.6 °F -29.2 °F 76% 30.22 in 10.0 mi West 6.9 mph - N/A   Clear
5:15 AM -23.8 °F -41.6 °F -29.2 °F 76% 30.21 in 10.0 mi West 6.9 mph - N/A   Clear
5:35 AM -23.8 °F -41.6 °F -27.4 °F 83% 30.22 in 10.0 mi West 6.9 mph - N/A   Clear
5:53 AM -23.8 °F -43.2 °F -29.2 °F 76% 30.22 in 10.0 mi West 8.1 mph - N/A   Clear
6:15 AM -23.8 °F -44.5 °F -29.2 °F 76% 30.21 in 10.0 mi West 9.2 mph - N/A   Clear
6:35 AM -23.8 °F -41.6 °F -29.2 °F 76% 30.20 in 10.0 mi WSW 6.9 mph - N/A   Clear
6:52 AM -23.8 °F -43.2 °F -29.2 °F 76% 30.20 in 10.0 mi WSW 8.1 mph - N/A   Clear
7:15 AM -23.8 °F -44.5 °F -27.4 °F 83% 30.21 in 10.0 mi West 9.2 mph - N/A   Clear
7:35 AM -25.6 °F -45.4 °F -31.0 °F 76% 30.20 in 10.0 mi WSW 8.1 mph - N/A   Clear
7:53 AM -23.8 °F -45.8 °F -27.4 °F 83% 30.19 in 10.0 mi West 10.4 mph - N/A   Clear
8:15 AM -23.8 °F -44.5 °F -27.4 °F 83% 30.19 in 10.0 mi West 9.2 mph - N/A   Clear
8:35 AM -22.0 °F -42.3 °F -27.4 °F 76% 30.20 in 10.0 mi West 9.2 mph - N/A   Clear
8:53 AM -20.2 °F -41.3 °F -25.6 °F 76% 30.18 in 10.0 mi WSW 10.4 mph - N/A   Clear
9:15 AM -18.4 °F -39.1 °F -25.6 °F 70% 30.19 in 10.0 mi West 10.4 mph - N/A   Clear
9:35 AM -18.4 °F -39.1 °F -23.8 °F 76% 30.19 in 10.0 mi West 10.4 mph 17.3 mph N/A   Clear
9:53 AM -16.6 °F -37.9 °F -22.0 °F 76% 30.18 in 10.0 mi West 11.5 mph - N/A   Clear
10:15 AM -16.6 °F -37.9 °F -22.0 °F 76% 30.18 in 10.0 mi West 11.5 mph - N/A   Clear
10:35 AM -16.6 °F -36.8 °F -20.2 °F 84% 30.18 in 10.0 mi West 10.4 mph - N/A   Clear
10:52 AM -14.8 °F -36.6 °F -20.2 °F 77% 30.18 in 10.0 mi West 12.7 mph - N/A   Clear
11:15 AM -14.8 °F -36.6 °F -20.2 °F 77% 30.18 in 10.0 mi West 12.7 mph - N/A   Clear
11:35 AM -13.0 °F -35.2 °F -18.4 °F 77% 30.17 in 10.0 mi West 13.8 mph - N/A   Clear
11:53 AM -11.2 °F -31.1 °F -18.4 °F 70% 30.17 in 10.0 mi West 11.5 mph - N/A   Clear
12:15 PM -11.2 °F -32.1 °F -18.4 °F 70% 30.15 in 10.0 mi West 12.7 mph - N/A   Clear
12:35 PM -9.4 °F -29.8 °F -18.4 °F 65% 30.14 in 10.0 mi WSW 12.7 mph - N/A   Clear
12:53 PM -9.4 °F -31.4 °F -18.4 °F 65% 30.14 in 10.0 mi WSW 15.0 mph - N/A   Clear
1:15 PM -9.4 °F -32.1 °F -18.4 °F 65% 30.13 in 10.0 mi West 16.1 mph - N/A   Clear
1:35 PM -9.4 °F -30.6 °F -18.4 °F 65% 30.12 in 10.0 mi West 13.8 mph - N/A   Clear
1:53 PM -7.6 °F -29.1 °F -18.4 °F 59% 30.12 in 10.0 mi West 15.0 mph - N/A   Clear
2:15 PM -7.6 °F -29.8 °F -18.4 °F 59% 30.11 in 10.0 mi West 16.1 mph - N/A   Clear
2:35 PM -7.6 °F -29.8 °F -18.4 °F 59% 30.10 in 10.0 mi West 16.1 mph - N/A   Clear
2:53 PM -7.6 °F -29.1 °F -16.6 °F 65% 30.10 in 10.0 mi West 15.0 mph - N/A   Clear
3:15 PM -7.6 °F -29.8 °F -16.6 °F 65% 30.09 in 10.0 mi West 16.1 mph - N/A   Mostly Cloudy
3:35 PM -7.6 °F -29.8 °F -16.6 °F 65% 30.08 in 10.0 mi West 16.1 mph - N/A   Scattered Clouds
3:53 PM -7.6 °F -26.6 °F -16.6 °F 65% 30.09 in 10.0 mi West 11.5 mph 20.7 mph N/A   Clear
4:15 PM -7.6 °F -29.1 °F -16.6 °F 65% 30.08 in 10.0 mi West 15.0 mph - N/A   Clear
4:35 PM -7.6 °F -29.8 °F -16.6 °F 65% 30.08 in 10.0 mi West 16.1 mph - N/A   Clear
4:53 PM -7.6 °F -28.3 °F -16.6 °F 65% 30.08 in 10.0 mi West 13.8 mph - N/A   Clear
5:15 PM -7.6 °F -25.7 °F -16.6 °F 65% 30.07 in 10.0 mi West 10.4 mph - N/A   Clear
5:35 PM -9.4 °F -26.8 °F -16.6 °F 71% 30.07 in 10.0 mi WSW 9.2 mph - N/A   Clear
5:53 PM -9.4 °F -25.6 °F -16.6 °F 71% 30.07 in 10.0 mi WSW 8.1 mph - N/A   Mostly Cloudy
6:15 PM -7.6 °F -22.1 °F -16.6 °F 65% 30.07 in 10.0 mi WSW 6.9 mph - N/A   Mostly Cloudy
6:35 PM -9.4 °F -22.7 °F -16.6 °F 71% 30.06 in 10.0 mi WSW 5.8 mph - N/A   Scattered Clouds
6:53 PM -9.4 °F -24.3 °F -16.6 °F 71% 30.05 in 10.0 mi WSW 6.9 mph - N/A   Clear
7:15 PM -9.4 °F -24.3 °F -16.6 °F 71% 30.04 in 10.0 mi WSW 6.9 mph - N/A   Clear
7:35 PM -9.4 °F -25.6 °F -16.6 °F 71% 30.03 in 10.0 mi WSW 8.1 mph - N/A   Clear
7:53 PM -9.4 °F -22.7 °F -16.6 °F 71% 30.04 in 10.0 mi WSW 5.8 mph - N/A   Clear
8:15 PM -11.2 °F -24.8 °F -16.6 °F 77% 30.02 in 10.0 mi WSW 5.8 mph - N/A   Clear
8:35 PM -11.2 °F -27.8 °F -16.6 °F 77% 30.02 in 10.0 mi WSW 8.1 mph - N/A   Clear
8:53 PM -9.4 °F -26.8 °F -16.6 °F 71% 30.00 in 10.0 mi WSW 9.2 mph - N/A   Clear
9:15 PM -7.6 °F -29.1 °F -14.8 °F 71% 29.99 in 10.0 mi West 15.0 mph - N/A   Clear
9:35 PM -7.6 °F -27.5 °F -13.0 °F 77% 29.99 in 10.0 mi West 12.7 mph - N/A   Clear
9:53 PM -7.6 °F -27.5 °F -14.8 °F 71% 29.98 in 10.0 mi West 12.7 mph - N/A   Clear
10:15 PM -7.6 °F -27.5 °F -13.0 °F 77% 29.97 in 10.0 mi West 12.7 mph - N/A   Clear
10:35 PM -7.6 °F -25.7 °F -13.0 °F 77% 29.97 in 10.0 mi West 10.4 mph - N/A   Clear
10:53 PM -7.6 °F -26.6 °F -13.0 °F 77% 29.96 in 10.0 mi West 11.5 mph - N/A   Clear
11:15 PM -7.6 °F -27.5 °F -13.0 °F 77% 29.95 in 10.0 mi West 12.7 mph - N/A   Clear
11:35 PM -7.6 °F -29.1 °F -13.0 °F 77% 29.95 in 10.0 mi West 15.0 mph - N/A   Clear
11:53 PM -7.6 °F -28.3 °F -13.0 °F 77% 29.94 in 10.0 mi West 13.8 mph - N/A   Clear